User: anonymous   Login
Location: Unspecified
(0.0000°N, 0.0000°E)
Time: 09:39:07
(UTC+00:00)
Language:

Tiros 8 - Orbit

View from above orbital plane
View from above orbital plane
View from above satellite
View from above satellite

Ground track
Ground track

The orbit data is extracted from the following two-line orbital elements,

1   716U 63054A   17295.90336546 -.00000017 +00000-0 +28164-4 0  9996
2   716 058.4950 169.6920 0027322 138.8952 221.4151 14.69394590851068
Epoch (UTC): 22 October 2017 21:40:50
Eccentricity: 0.0027322
inclination: 58.4950°
perigee height: 644 km
apogee height: 682 km
right ascension of ascending node: 169.6920°
argument of perigee: 138.8952°
revolutions per day: 14.69394590
mean anomaly at epoch: 221.4151°
orbit number at epoch: 85106

The dashed part of the orbit path shows where the satellite is in the earth's shadow,  

DLR